AFR53 GQNO-GUCY

Flight info

Callsign AFR53
Flight time N/A
Altitude 41000
Route NO502 DCT BINAD DCT NEVDI DCT KITNI UR865 POGRA POGRA1B
Aircraft A359/H-SDE2E3GHIJ3J4J5LM1ORWXY/LB1D1

Departure

Time 2026-04-30 14:25
Airport Nouakchott–Oumtounsy International Airport (GQNO)

Arrival

Time N/A
Airport Ahmed Sékou Touré International Airport (GUCY)
Time Latitude Longitude Altitude Speed Heading
2026-04-30 14:06 18.30842 -15.96429 13 ft 0 kts 59°
2026-04-30 14:11 18.30854 -15.96409 13 ft 4 kts 59°
2026-04-30 14:11 18.30859 -15.96399 12 ft 0 kts 59°
2026-04-30 14:13 18.30859 -15.96400 12 ft 0 kts 59°
2026-04-30 14:15 18.30857 -15.96404 12 ft 3 kts 59°
2026-04-30 14:16 18.30847 -15.96420 13 ft 3 kts 59°
2026-04-30 14:16 18.30838 -15.96436 13 ft 3 kts 59°
2026-04-30 14:16 18.30829 -15.96453 31 ft 3 kts 59°
2026-04-30 14:16 18.30820 -15.96467 37 ft 0 kts 62°
2026-04-30 14:17 18.30817 -15.96473 41 ft 3 kts 66°
2026-04-30 14:17 18.30813 -15.96492 14 ft 3 kts 90°
2026-04-30 14:17 18.30814 -15.96504 15 ft 2 kts 105°
2026-04-30 14:17 18.30818 -15.96522 16 ft 3 kts 104°
2026-04-30 14:18 18.30820 -15.96530 18 ft 0 kts 120°
2026-04-30 14:19 18.30794 -15.96516 15 ft 11 kts 156°
2026-04-30 14:20 18.30705 -15.96469 15 ft 15 kts 151°
2026-04-30 14:20 18.30606 -15.96451 16 ft 15 kts 206°
2026-04-30 14:20 18.30375 -15.96379 22 ft 29 kts 150°
2026-04-30 14:21 18.30187 -15.96264 25 ft 32 kts 149°
2026-04-30 14:21 18.29986 -15.96140 22 ft 34 kts 150°
2026-04-30 14:21 18.29541 -15.95869 13 ft 38 kts 149°
2026-04-30 14:22 18.29326 -15.95735 21 ft 34 kts 149°
2026-04-30 14:22 18.29064 -15.95616 22 ft 0 kts 220°
2026-04-30 14:23 18.29055 -15.95775 14 ft 16 kts 327°
2026-04-30 14:23 18.29066 -15.95782 14 ft 0 kts 328°
2026-04-30 14:24 18.29086 -15.95795 14 ft 19 kts 329°
2026-04-30 14:25 18.30178 -15.96464 26 ft 153 kts 329°
2026-04-30 14:25 18.32124 -15.97676 1382 ft 164 kts 331°
2026-04-30 14:26 18.33289 -15.99926 2476 ft 201 kts 276°
2026-04-30 14:26 18.32928 -16.01403 3014 ft 220 kts 243°
2026-04-30 14:26 18.30525 -16.03809 4027 ft 257 kts 212°
2026-04-30 14:27 18.28880 -16.04616 4764 ft 264 kts 205°
2026-04-30 14:27 18.27152 -16.05217 5572 ft 266 kts 199°
2026-04-30 14:27 18.25337 -16.05721 6437 ft 266 kts 197°
2026-04-30 14:28 18.21729 -16.06624 7992 ft 270 kts 195°
2026-04-30 14:28 18.19902 -16.07095 8857 ft 271 kts 195°
2026-04-30 14:28 18.18075 -16.07583 9753 ft 272 kts 195°
2026-04-30 14:28 18.16223 -16.08092 10452 ft 282 kts 195°
2026-04-30 14:29 18.12160 -16.09235 11114 ft 322 kts 196°
2026-04-30 14:29 18.07572 -16.10253 11945 ft 348 kts 186°
2026-04-30 14:30 18.00164 -16.10506 13912 ft 361 kts 181°
2026-04-30 14:31 17.95062 -16.10487 14974 ft 372 kts 181°
2026-04-30 14:31 17.89845 -16.10476 16118 ft 378 kts 181°
2026-04-30 14:31 17.87199 -16.10480 16675 ft 382 kts 181°
2026-04-30 14:32 17.81791 -16.10500 17585 ft 395 kts 181°
2026-04-30 14:32 17.79031 -16.10511 18155 ft 398 kts 181°
2026-04-30 14:32 17.76244 -16.10522 18609 ft 402 kts 181°
2026-04-30 14:33 17.73434 -16.10533 19056 ft 407 kts 182°
2026-04-30 14:33 17.67719 -16.10556 20033 ft 414 kts 181°
2026-04-30 14:33 17.64828 -16.10567 20522 ft 417 kts 182°
2026-04-30 14:34 17.61911 -16.10579 21028 ft 421 kts 182°
2026-04-30 14:34 17.58969 -16.10591 21533 ft 424 kts 182°
2026-04-30 14:34 17.56006 -16.10603 22032 ft 428 kts 182°
2026-04-30 14:34 17.53015 -16.10614 22525 ft 432 kts 182°
2026-04-30 14:35 17.46961 -16.10637 23503 ft 438 kts 182°
2026-04-30 14:35 17.43897 -16.10649 23912 ft 442 kts 182°
2026-04-30 14:35 17.40810 -16.10660 24325 ft 445 kts 182°
2026-04-30 14:36 17.37699 -16.10672 24763 ft 449 kts 182°
2026-04-30 14:36 17.34565 -16.10684 25196 ft 452 kts 182°
2026-04-30 14:36 17.31406 -16.10696 25655 ft 456 kts 183°
2026-04-30 14:36 17.28223 -16.10708 26102 ft 459 kts 183°
2026-04-30 14:37 17.25058 -16.10720 26556 ft 463 kts 183°
2026-04-30 14:37 17.21829 -16.10733 26997 ft 466 kts 184°
2026-04-30 14:37 17.18569 -16.10746 27445 ft 470 kts 184°
2026-04-30 14:37 17.15289 -16.10759 27887 ft 473 kts 184°
2026-04-30 14:38 17.11984 -16.10772 28318 ft 477 kts 184°
2026-04-30 14:38 17.08654 -16.10784 28745 ft 480 kts 184°
2026-04-30 14:38 17.05295 -16.10798 29117 ft 485 kts 184°
2026-04-30 14:38 17.01903 -16.10811 29527 ft 489 kts 184°
2026-04-30 14:39 16.98489 -16.10824 29923 ft 492 kts 184°
2026-04-30 14:39 16.95053 -16.10838 30281 ft 495 kts 184°
2026-04-30 14:39 16.91600 -16.10850 30664 ft 497 kts 184°
2026-04-30 14:40 16.84662 -16.10874 31423 ft 500 kts 184°
2026-04-30 14:40 16.81175 -16.10887 31774 ft 502 kts 184°
2026-04-30 14:40 16.77675 -16.10900 32111 ft 504 kts 184°
2026-04-30 14:40 16.74169 -16.10914 32439 ft 505 kts 184°
2026-04-30 14:41 16.70642 -16.10927 32761 ft 507 kts 184°
2026-04-30 14:41 16.67108 -16.10940 33061 ft 509 kts 184°
2026-04-30 14:41 16.63562 -16.10954 33361 ft 510 kts 184°
2026-04-30 14:41 16.60008 -16.10966 33740 ft 510 kts 184°
2026-04-30 14:42 16.56467 -16.10880 34160 ft 510 kts 179°
2026-04-30 14:42 16.52948 -16.10341 34545 ft 513 kts 171°
2026-04-30 14:42 16.49531 -16.09246 34920 ft 516 kts 161°
2026-04-30 14:42 16.46298 -16.07608 35275 ft 518 kts 155°
2026-04-30 14:43 16.43158 -16.05751 35607 ft 518 kts 153°
2026-04-30 14:43 16.40071 -16.03818 35970 ft 517 kts 152°
2026-04-30 14:43 16.37022 -16.01865 36328 ft 515 kts 152°
2026-04-30 14:43 16.33971 -15.99903 36658 ft 514 kts 152°
2026-04-30 14:44 16.30929 -15.97957 36957 ft 513 kts 152°
2026-04-30 14:44 16.27882 -15.96021 37249 ft 512 kts 152°
2026-04-30 14:44 16.24838 -15.94099 37557 ft 511 kts 153°
2026-04-30 14:44 16.21797 -15.92187 37848 ft 510 kts 153°
2026-04-30 14:45 16.18764 -15.90285 38147 ft 509 kts 153°
2026-04-30 14:45 16.15732 -15.88385 38444 ft 508 kts 153°
2026-04-30 14:45 16.12709 -15.86492 38705 ft 507 kts 153°
2026-04-30 14:45 16.09691 -15.84602 38914 ft 506 kts 153°
2026-04-30 14:46 16.06682 -15.82718 39201 ft 503 kts 153°
2026-04-30 14:46 16.03689 -15.80844 39446 ft 502 kts 153°
2026-04-30 14:46 16.00701 -15.78974 39643 ft 501 kts 153°
2026-04-30 14:46 15.97715 -15.77106 39820 ft 501 kts 153°
2026-04-30 14:47 15.94731 -15.75241 40021 ft 500 kts 153°
2026-04-30 14:47 15.91752 -15.73379 40190 ft 500 kts 153°
2026-04-30 14:47 15.88776 -15.71519 40380 ft 499 kts 153°
2026-04-30 14:47 15.85844 -15.69687 40548 ft 498 kts 153°
2026-04-30 14:48 15.82872 -15.67831 40708 ft 498 kts 153°
2026-04-30 14:48 15.79906 -15.65979 40858 ft 498 kts 153°
2026-04-30 14:48 15.73973 -15.62277 40926 ft 495 kts 153°
2026-04-30 14:49 15.68087 -15.58605 40924 ft 493 kts 153°
2026-04-30 14:49 15.62205 -15.54940 40925 ft 493 kts 153°
2026-04-30 14:50 15.53390 -15.49452 40922 ft 493 kts 153°
2026-04-30 14:51 15.44563 -15.43962 40905 ft 493 kts 153°
2026-04-30 14:52 15.35771 -15.38498 40919 ft 490 kts 153°
2026-04-30 14:52 15.27003 -15.33054 40916 ft 490 kts 153°
2026-04-30 14:53 15.18234 -15.27617 40916 ft 490 kts 153°
2026-04-30 14:54 15.06581 -15.20399 40914 ft 490 kts 153°
2026-04-30 14:55 14.97815 -15.14974 40908 ft 490 kts 153°
2026-04-30 14:56 14.86120 -15.07746 40908 ft 490 kts 153°
2026-04-30 14:57 14.77290 -15.02454 40904 ft 487 kts 159°
2026-04-30 14:58 14.64485 -14.98365 40905 ft 481 kts 169°
2026-04-30 14:58 14.54771 -14.95750 40903 ft 481 kts 169°
2026-04-30 15:00 14.38591 -14.91326 40898 ft 481 kts 168°
2026-04-30 15:01 14.25705 -14.87795 40899 ft 481 kts 168°
2026-04-30 15:01 14.16007 -14.85141 40895 ft 481 kts 168°
2026-04-30 15:02 14.09541 -14.83373 40895 ft 481 kts 168°
2026-04-30 15:03 13.93380 -14.78956 40895 ft 481 kts 168°
2026-04-30 15:04 13.77214 -14.74549 40895 ft 481 kts 168°
2026-04-30 15:06 13.62187 -14.70455 40892 ft 479 kts 168°
2026-04-30 15:07 13.48269 -14.66670 40894 ft 478 kts 168°
2026-04-30 15:08 13.36452 -14.63458 40890 ft 477 kts 168°
2026-04-30 15:09 13.20421 -14.59107 40889 ft 476 kts 168°
2026-04-30 15:10 13.07606 -14.55634 40882 ft 476 kts 168°
2026-04-30 15:11 12.88428 -14.50446 40889 ft 476 kts 168°
2026-04-30 15:13 12.72401 -14.46115 40883 ft 476 kts 168°
2026-04-30 15:14 12.49948 -14.40054 40883 ft 477 kts 168°
2026-04-30 15:17 12.21068 -14.32276 40884 ft 477 kts 168°
2026-04-30 15:19 11.95379 -14.25372 40879 ft 478 kts 168°